DMSP 5D-2 F15 DEB

Satellite information

Favourite Embed

Satellite Type and Status

DEBRISIN ORBIT

Key statistics

Satellite DMSP 5D-2 F15 DEB at a glance.

Uptime

9449

Days in orbit

Revolutions

≈ 14.5

Per day

Orbit

SSO

Sun Synchronous Orbit

Inclination

98.3

Latest

Satellite identification and parameters

Extended collection of information and parameters for DMSP 5D-2 F15 DEB.

Object identification

Identified? True

Debris? True

Object name: DMSP 5D-2 F15 DEB

International designator: 1999-067C

Object number (NORAD): 25993

Object ID (CCSDS): 25993

Country: UNITED STATES OF AMERICA (US)

Current information (Y/N): Y

RCS size: SMALL

Orbital parameters

Period: 99.125 minutes

Inclination: 98.3262 deg

SMA: 7094.94 km

Apoapsis: 718.879 km

Periapsis: 714.732 km

RAAN: 279.765 deg

Eccentricy: 0.00029222

Argument of periapsis: 350.4188 deg

Mean anomaly: 64.5431 deg

Mean motion: 14.52712406 rev/day

Mean motion (dot): 0.00007825 rev/day2

B* drag term: 0.0019170823 1/REarth

Two-line elements (TLE)

Creation date: Oct. 24, 2025, 2:48 a.m.

Reference frame: TEME

Reference center: EARTH

Epoch: Oct. 23, 2025, 10:32 p.m. UTC

TLE line 0: 0 DMSP 5D-2 F15 DEB

TLE line 1: 1 25993U 99067C 25296.93927812 .00007825 00000-0 19171-2 0 9997

TLE line 2: 2 25993 98.3262 279.7650 0002922 350.4188 64.5431 14.52712406349629

Live tracking on map

Real-time ground track for satellite DMSP 5D-2 F15 DEB.

In-orbit conjunctions

A list of the most updated potential collisions computed for object DMSP 5D-2 F15 DEB.

Target Orbit TCA Probability of collision Miss distance Type
SL-8 DEB LEO 2024-11-15 06:00:52 0.0001976353 952.0 (m) DEBRIS
NOAA 16 DEB SSO 2024-11-14 22:19:55 0.001335741 91.0 (m) DEBRIS
NOAA 16 DEB SSO 2024-09-30 14:13:46 0.0002660433 122.0 (m) DEBRIS
OPAL SSO 2024-09-26 02:14:48 0.0002185693 309.0 (m) PAYLOAD

Associated space launch

DMSP-5D3 (Defense Meteorological Satellite Program Block 5D3) is the eleventh and most recent version of the military meteorological satellites of the Defense Meteorological Satellite Program.

DMSP 5D-2 F15 DEB was lifted into orbit during the mission ‘Titan II SLV | DMSP F-15’, on board a Titan II SLV space rocket.

The launch took place on Dec. 12, 1999, 5:38 p.m. from Space Launch Complex 4W.

For more information about the launch, click the button.

Launch to space Titan II SLV | DMSP F-15
Titan II SLV | DMSP F-15

Agency: N/A

Status: Launch Successful

Launch date: Dec. 12, 1999, 5:38 p.m. UTC

Rocket: Titan II SLV

Launch pad: Space Launch Complex 4W

Location: Vandenberg SFB, CA, USA

...

Latest news about this satellite

There are no fresh news available about this satellite. Check back as we update our databases every day.


Newsletter sign-up

Weekly statistics, charts and insights to help you stay on top of the space industry.